| time (UTC) | temp F | wind direction | speed knots | gust knots | rain 1hr in | rain 24hr in | rain mn in | humidity % | barometer mb |
| 20260503214554 | 59 | 193 | 5.2 | 12.2 | 0.00 | 0.01 | 0.01 | 54 | 1011.1 |
| 20260503213057 | 59 | 201 | 5.2 | 10.4 | 0.00 | 0.01 | 0.01 | 54 | 1011.3 |
| 20260503211553 | 59 | 224 | 6.1 | 10.4 | 0.00 | 0.01 | 0.01 | 53 | 1011.3 |
| 20260503210056 | 59 | 209 | 5.2 | 13.0 | 0.00 | 0.01 | 0.01 | 55 | 1011.8 |
| 20260503204602 | 58 | 207 | 6.1 | 9.6 | 0.00 | 0.01 | 0.01 | 52 | 1012.1 |
| 20260503203100 | 59 | 191 | 5.2 | 13.0 | 0.00 | 0.01 | 0.01 | 54 | 1012.3 |
| 20260503201554 | 60 | 189 | 6.1 | 13.0 | 0.00 | 0.01 | 0.01 | 52 | 1013.0 |
| 20260503200053 | 60 | 215 | 6.1 | 10.4 | 0.00 | 0.01 | 0.01 | 53 | 1013.0 |
| 20260503194618 | 59 | 202 | 5.2 | 8.7 | 0.00 | 0.01 | 0.01 | 55 | 1013.3 |
| 20260503193055 | 58 | 229 | 5.2 | 10.4 | 0.00 | 0.01 | 0.01 | 57 | 1013.9 |
| 20260503191601 | 57 | 196 | 2.6 | 7.8 | 0.00 | 0.01 | 0.01 | 59 | 1014.6 |
| 20260503190059 | 57 | 196 | 2.6 | 7.8 | 0.00 | 0.01 | 0.01 | 59 | 1014.6 |
| 20260503184556 | 57 | 188 | 4.3 | 9.6 | 0.00 | 0.01 | 0.01 | 55 | 1014.5 |
| 20260503183106 | 58 | 196 | 4.3 | 7.8 | 0.00 | 0.01 | 0.01 | 56 | 1014.3 |
| 20260503181552 | 56 | 207 | 5.2 | 7.8 | 0.00 | 0.01 | 0.01 | 59 | 1014.8 |
| 20260503180107 | 56 | 194 | 3.5 | 7.8 | 0.00 | 0.01 | 0.01 | 60 | 1015.4 |
| 20260503174554 | 56 | 234 | 3.5 | 7.0 | 0.00 | 0.01 | 0.01 | 58 | 1015.7 |
| 20260503173149 | 56 | 228 | 4.3 | 10.4 | 0.00 | 0.01 | 0.01 | 57 | 1016.0 |
| 20260503171555 | 57 | 190 | 4.3 | 8.7 | 0.00 | 0.01 | 0.01 | 57 | 1016.1 |
| 20260503130104 | 47 | 212 | 3.5 | 7.8 | 0.00 | 0.01 | 0.01 | 66 | 1017.6 |
| 20260503100111 | 39 | 173 | 1.7 | 3.5 | 0.00 | 0.01 | 0.01 | 75 | 1017.0 |
| 20260503090106 | 39 | 193 | 1.7 | 4.3 | 0.01 | 0.01 | 0.01 | 73 | 1017.0 |
| 20260503081600 | 39 | 194 | 1.7 | 2.6 | 0.00 | 0.00 | 0.00 | 73 | 1017.2 |
| 20260503071552 | 40 | 200 | 0.9 | 2.6 | 0.00 | 0.00 | 0.00 | 73 | 1017.2 |
| 20260503054550 | 40 | 0 | 0.0 | 0.0 | 0.00 | 0.00 | 0.00 | 72 | 1017.8 |
| 20260503053053 | 40 | 0 | 0.0 | 0.0 | 0.00 | 0.00 | 0.00 | 73 | 1017.9 |
| 20260503051551 | 40 | 0 | 0.0 | 0.0 | 0.00 | 0.00 | 0.00 | 73 | 1018.0 |
| 20260503050058 | 40 | 0 | 0.0 | 0.0 | 0.00 | 0.00 | 0.00 | 73 | 1018.0 |
| 20260503044556 | 40 | 0 | 0.0 | 0.0 | 0.00 | 0.00 | 0.00 | 73 | 1018.0 |
| 20260503043051 | 40 | 0 | 0.0 | 0.0 | 0.00 | 0.00 | 0.00 | 74 | 1018.0 |
| 20260503041553 | 40 | 0 | 0.0 | 0.9 | 0.00 | 0.00 | 0.00 | 74 | 1018.1 |
| 20260503040054 | 40 | 0 | 0.0 | 0.0 | 0.00 | 0.00 | 0.00 | 74 | 1018.0 |
| 20260503034550 | 40 | 0 | 0.0 | 0.0 | 0.00 | 0.00 | 0.00 | 73 | 1018.1 |
| 20260503033051 | 40 | 0 | 0.0 | 0.0 | 0.00 | 0.00 | 0.00 | 72 | 1018.2 |
| 20260503031557 | 41 | 0 | 0.0 | 0.0 | 0.00 | 0.00 | 0.00 | 71 | 1018.1 |
| 20260503030051 | 42 | 0 | 0.0 | 0.0 | 0.00 | 0.00 | 0.00 | 71 | 1018.2 |
| 20260503024552 | 42 | 0 | 0.0 | 0.0 | 0.00 | 0.00 | 0.00 | 69 | 1018.1 |
| 20260503023056 | 42 | 0 | 0.0 | 0.0 | 0.00 | 0.00 | 0.00 | 64 | 1018.1 |
| 20260503021552 | 43 | 0 | 0.0 | 0.9 | 0.00 | 0.00 | 0.00 | 64 | 1018.0 |
| 20260503020059 | 44 | 0 | 0.0 | 0.9 | 0.00 | 0.00 | 0.00 | 65 | 1018.0 |
| 20260503014558 | 44 | 0 | 0.0 | 0.0 | 0.00 | 0.00 | 0.00 | 55 | 1017.9 |
| 20260503013050 | 44 | 0 | 0.0 | 0.0 | 0.00 | 0.00 | 0.00 | 57 | 1017.8 |
| 20260503011604 | 45 | 0 | 0.0 | 0.9 | 0.00 | 0.00 | 0.00 | 59 | 1017.7 |
| 20260503010053 | 46 | 0 | 0.0 | 0.0 | 0.00 | 0.00 | 0.00 | 54 | 1017.6 |
| 20260503004549 | 47 | 0 | 0.0 | 0.9 | 0.00 | 0.00 | 0.00 | 54 | 1017.6 |
| 20260503003105 | 48 | 0 | 0.0 | 0.9 | 0.00 | 0.00 | 0.00 | 52 | 1017.5 |
| 20260503001552 | 49 | 0 | 0.0 | 1.7 | 0.00 | 0.00 | 0.00 | 47 | 1017.5 |
| 20260503000109 | 49 | 319 | 0.9 | 3.5 | 0.00 | 0.00 | 0.00 | 46 | 1017.5 |
| 20260502234551 | 49 | 0 | 0.0 | 3.5 | 0.00 | 0.00 | 0.00 | 51 | 1017.4 |
| 20260502233053 | 49 | 319 | 0.9 | 3.5 | 0.00 | 0.00 | 0.00 | 47 | 1017.4 |
| 20260502231616 | 49 | 316 | 1.7 | 3.5 | 0.00 | 0.00 | 0.00 | 44 | 1017.5 |
| 20260502230058 | 49 | 321 | 0.9 | 2.6 | 0.00 | 0.00 | 0.00 | 44 | 1017.5 |
| 20260502224600 | 49 | 315 | 0.9 | 3.5 | 0.00 | 0.00 | 0.00 | 45 | 1017.6 |
| 20260502223055 | 50 | 313 | 2.6 | 7.0 | 0.00 | 0.00 | 0.00 | 47 | 1017.6 |
| 20260502221556 | 50 | 333 | 1.7 | 4.3 | 0.00 | 0.00 | 0.00 | 45 | 1017.6 |
| 20260502220058 | 50 | 339 | 0.9 | 3.5 | 0.00 | 0.00 | 0.00 | 44 | 1017.5 |